www.pogodaiklimat.ru
Время
(UTC), дата
18 14.09
21 14.09
00 15.09
03 15.09
06 15.09
09 15.09
12 15.09
15 15.09
18 15.09
21 15.09
00 16.09
03 16.09
06 16.09
09 16.09
12 16.09
15 16.09
18 16.09
21 16.09
00 17.09
03 17.09
06 17.09
09 17.09
12 17.09
15 17.09
18 17.09
21 17.09
00 18.09
03 18.09
06 18.09
09 18.09
12 18.09
15 18.09
18 18.09
21 18.09
00 19.09
03 19.09
06 19.09
09 19.09
12 19.09
15 19.09
18 19.09
21 19.09
00 20.09
03 20.09
06 20.09
09 20.09
12 20.09
15 20.09
18 20.09
21 20.09
00 21.09
03 21.09
06 21.09
09 21.09
12 21.09
Ветер
(напр.,м/с)
Видим. Явления Облачность Т
(С)
Тd
(С)
f
(%)
Тe
(С)
Тes
(С)
Комфортность P
(гПа)
Po
(гПа)
Тmin
(С)
Tmax
(С)
R
(мм)
R24
(мм)
S
(см)
Ю 3-4
{9}
10 км ясно +33.8 +10.5 24 +33 +33 жарко 1004.3 998.9
штиль 0-1
{4}
8000 м мгла ясно +30.7 +9.8 27 +30 +30 жарко 1004.0 998.6 +26.5 +47.4
Ю 3-3
{4}
10 км ясно +29.7 +8.9 27 +29 +29 жарко 1003.0 997.6
штиль 0-1
{3}
4500 м пыль ясно +26.8 +5.4 25 +26 +26 жарко 1004.3 998.8 2
С 4-5
{6}
6000 м мгла ясно +36.5 +8.8 19 +35 +41 очень
жарко
1004.9 999.6 253
В 2-4
{5}
4500 м пыль ясно +42.5 +11.5 16 +42 +59 опасность
перегрева
1003.6 998.4 381
ЮВ 4-6
{8}
6000 м мгла ясно +42.7 +12.4 17 +42 +47 опасность
перегрева
1002.1 996.9 289
ЮВ 5-7
{8}
5000 м мгла ясно +37.1 +19.7 36 +42 +42 опасность
перегрева
1002.0 996.7 15
Ю 3-4
{8}
7000 м мгла ясно +32.7 +21.6 52 +41 +41 опасность
перегрева
1003.3 997.9
штиль 0-3
{5}
7000 м мгла ясно +29.4 +21.6 63 +37 +37 очень
душно
1003.2 997.8 +26.2 +43.2
ЮВ 3-4
{5}
7000 м мгла ясно +30.1 +17.8 48 +35 +35 очень
душно
1003.3 997.9
ЮВ 3-3
{4}
5000 м мгла 3/0
[Ci fib]
+30.5 +23.8 67 +42 +42 опасность
перегрева
1004.3 998.9 2
СЗ 2-2
{4}
4500 м пыль ясно +36.2 +24.3 51 +49 +59 опасность
перегрева
1005.9 1000.6 243
ЮВ 4-6
{7}
6000 м мгла ясно +39.9 +21.7 35 +47 +58 опасность
перегрева
1004.7 999.4 391
В 5-6
{8}
6000 м мгла ясно +39.9 +19.9 32 +45 +50 опасность
перегрева
1003.5 998.3 287
ЮВ 5-7
{7}
7000 м мгла 3/0
[Ac trans]
+35.5 +24.0 52 +47 +47 опасность
перегрева
1004.1 998.8 11
Ю 2-3
{7}
8000 м мгла ясно +32.0 +23.3 60 +43 +43 опасность
перегрева
1005.5 1000.1
С 2
{4}
10 км ясно +30.7 +24.0 68 +43 +43 опасность
перегрева
1005.8 1000.4 +28.1 +41.2
ЮЗ 2-2
{4}
7000 м мгла ясно +26.7 +21.9 75 +34 +34 очень
душно
1005.2 999.7
Ю 3-3
{4}
4500 м пыль ясно +26.1 +20.6 72 +33 +33 очень
душно
1006.6 1001.1 2
ЮЗ 2-3
{4}
7000 м мгла ясно +36.1 +17.9 34 +40 +50 очень
душно
1007.9 1002.6 246
ЮВ 2-3
{5}
8000 м мгла ясно +42.7 +13.3 18 +43 +59 опасность
перегрева
1006.8 1001.6 379
В 4-6
{7}
6000 м мгла ясно +42.3 +15.7 21 +43 +49 опасность
перегрева
1005.5 1000.3 249
ЮВ 4-6
{7}
6000 м мгла ясно +37.7 +20.5 37 +44 +44 опасность
перегрева
1005.6 1000.3 11
Ю 3-3
{7}
6000 м мгла ясно +32.6 +22.1 54 +41 +41 опасность
перегрева
1007.2 1001.8
С 2-2
{6}
6000 м мгла ясно +31.5 +21.4 55 +39 +39 очень
душно
1006.9 1001.5 +24.9 +44.4
ЮЗ 3-4
{6}
6000 м мгла ясно +29.0 +16.8 48 +33 +33 очень
душно
1006.2 1000.8
Ю 2-2
{4}
5000 м мгла ясно +27.1 +6.0 26 +26 +26 жарко 1007.4 1001.9 2
штиль 0-1
{4}
7000 м мгла ясно +36.9 +6.0 15 +34 +47 очень
жарко
1008.1 1002.8 255
С 2-4
{4}
8000 м мгла ясно +43.2 +9.1 13 +41 +59 опасность
перегрева
1006.3 1001.1 374
В 3-6
{10}
10 км ясно +41.8 +12.8 18 +41 +48 опасность
перегрева
1005.0 999.8 287
Ю 2-3
{6}
10 км ясно +38.2 +11.5 20 +37 +37 очень
жарко
1004.7 999.4 13
Ю 3-4
{6}
10 км ясно +32.5 +18.1 42 +37 +37 очень
душно
1005.9 1000.5
штиль 0-2
{5}
10 км ясно +29.7 +13.9 38 +31 +31 жарко 1005.1 999.7 +25.1 +44.8
З 2-3
{5}
10 км ясно +27.8 +10.5 34 +28 +28 жарко 1004.9 999.4
Ю 2-8
{9}
5000 м мгла ясно +26.7 +8.7 32 +27 +27 жарко 1005.5 1000.0 2
СЗ 2-3
{9}
4500 м пыль ясно +36.4 +4.0 13 +33 +42 жарко 1006.0 1000.7 260
С 3-6
{7}
5000 м мгла ясно +43.4 +6.1 11 +41 +54 опасность
перегрева
1004.6 999.4 401
В 2-6
{9}
8000 м мгла ясно +44.5 +5.6 10 +42 +49 опасность
перегрева
1002.5 997.3 301
ЮВ 2-2
{5}
7000 м мгла ясно +40.7 +4.3 11 +38 +38 очень
жарко
1002.4 997.2 9
штиль 0-4
{5}
10 км ясно +34.2 +3.8 15 +31 +31 жарко 1003.9 998.6
С 6-8
{9}
8000 м мгла ясно +37.1 +9.1 18 +35 +35 очень
жарко
1003.7 998.4 +22.6 +45.2
С 7-10
{11}
8000 м мгла ясно +34.7 +12.2 26 +35 +35 очень
жарко
1003.7 998.4
С 5-7
{9}
8000 м мгла ясно +32.5 +13.6 32 +34 +34 очень
жарко
1004.8 999.4 2
С 7-10
{11}
8000 м мгла ясно +37.3 +11.8 22 +37 +39 очень
жарко
1005.8 1000.5 269
С 8-10
{12}
10 км ясно +41.4 +6.7 12 +39 +42 очень
жарко
1004.5 999.3 405
С 11-15
{16}
3000 м пыльный позёмок ясно +43.3 +4.8 10 +40 +40 очень
жарко
1002.2 997.0 254
С 9-14
{17}
5000 м пыльный позёмок ясно +40.5 +5.8 12 +38 +38 очень
жарко
1002.7 997.5 8
С 8-13
{17}
7000 м мгла ясно +38.3 +8.3 16 +36 +36 очень
жарко
1004.0 998.7
СЗ 7-11
{12}
10 км ясно +35.9 +8.7 19 +34 +34 очень
жарко
1003.3 998.0 +30.3 +44.0
СЗ 8-13
{15}
10 км ясно +34.4 +8.8 21 +33 +33 жарко 1002.4 997.1
С 7-11
{15}
10 км ясно +31.9 +9.8 26 +31 +31 жарко 1003.6 998.2 3
С 8-9
{15}
7000 м мгла ясно +35.5 +11.0 23 +35 +37 очень
жарко
1004.4 999.1 280
СВ 7 7000 м мгла ясно +39.8 +8.7 15 +38 +43 очень
жарко
1004.0 998.8 400
ЮВ 3-8 8000 м мгла ясно +40.0 +13.3 21 +40 +47 очень
душно
1003.1 997.9 297
Местоположение метеостанции Эль-Кувейт (Кувейт): широта 29.22 долгота 47.97 высота над уровнем моря 48 м.
В архиве по умолчанию представлена погода в Эль-Кувейте за последнюю неделю. Архивные данные за месяц целиком и за предыдущие месяцы, начиная с января 2011 года, Вы можете получить, выбрав интересующий диапазон дат из раскрывающегося списка и нажав кнопку "Найти!".
*Определитесь, кто Вы:
Внимание! Время в таблицах - всемирное. Для получения местного времени необходимо прибавить поправку, которая равна 3 ч.
Смотрите также архив погоды в соседних городах и на ближайших метеорологических станциях:
Партнеры нашего сайта:      
Пояснения к столбцам:
  • Ветер - указаны скорость ветра в м/с - средняя за 10 мин, порывы в срок и между сроками (в фигурных скобках) и направление, откуда дует ветер: С - северный,
  • СВ - северо-восточный, В - восточный, ЮВ - юго-восточный, Ю - южный, ЮЗ - юго-западный, З - западный, СЗ - северо-западный.
  • Видимость - горизонтальная дальность видимости в метрах или километрах. При видимости от 1 до 10 км при отсутствии осадков обычно наблюдается дымка, при ухудшении видимости до 1 км и менее - туман. В сухую погоду видимость может ухудшаться дымом, пылью или мглою.
  • Явления - указаны атмосферные явления, наблюдавшиеся в срок или в последний час перед сроком; фигурными скобками обозначены явления, наблюдавшиеся между сроками (за 1-3 часа до срока); квадратными скобками обозначены град или гололедные отложения с указанием их диаметра в мм.
  • Облачность - указаны через наклонную черту общая и нижняя облачность в баллах и высота нижней границы облаков в метрах; квадратными скобками обозначены формы облаков: Ci - перистые, Cs - перисто-слоистые, Cc - перисто-кучевые, Ac - высококучевые, As - высокослоистые, Sc - слоисто-кучевые, Ns - слоисто-дождевые, Cu - кучевые, Cb - кучево-дождевые. Подробнее классификацию облаков см. в Атласе облаков (PDF).
  • T - Температура воздуха - температура, измеренная на высоте 2 м над землей.
  • Td - Температура точки росы - температура, при понижении до которой содержащийся в воздухе водяной пар достигнет насыщения.
  • f - Относительная влажность воздуха - влажноcть воздуха, измеренная на высоте 2 м над землей.
  • Te - Эффективная температура - температура, которую ощущает одетый по сезону человек в тени. Характеристика душности погоды. При расчете учитывается влияние влажности воздуха и скорости ветра на теплоощущения человека.
  • Tes - Эффективная температура на солнце - температура, которую ощущает человек, с поправкой на солнечный нагрев. Характеристика знойности погоды. Зависит от высоты солнца над горизонтом, облачности и скорости ветра. Ночью, в пасмурную погоду, а также при ветре 12 м/с и более поправка равна нулю.
  • P - Атмосферное давление - приведенное к уровню моря атмосферное давление.
  • Po - Атмосферное давление - измеренное на уровне метеостанции атмосферное давление.
  • Tmin - Минимальная температура - минимум температуры воздуха на высоте 2 м над землей.
  • Tmax - Максимальная температура - максимум температуры воздуха на высоте 2 м над землей.
  • R - Количество осадков - Количество выпавших осадков за период времени, мм. При наведении курсора мыши на число - период времени, за который выпало указанное количество осадков.
  • R24 - Количество осадков - Количество выпавших осадков за 24 часа, мм.
  • S - Снежный покров - Высота снежного покрова, см. При наведении курсора мыши на число - состояние снежного покрова и степень покрытия местности в баллах.